This demonstration page uses our WeatherBlox Daily Observations layout. Learn more.

Left ArrowRight Arrow

39.12711, -84.51439

Hourly Observations for August 16, 2022

Temp ( °F °C ) Dew Point ( °F °C ) Humidity (%) Winds ( mph kmh ) Pressure ( in mb ) Visibility ( mi km ) Precip ( " mm )
12:53 am 00:53 Clear 63 17.2 62 16.7 97 97 Calm 29.99 1016 9 14 0.00 0.00
1:53 am 01:53 Clear 62 16.7 61 16.1 96 96 Calm 29.98 1015 9 14 0.00 0.00
2:53 am 02:53 Clear 61 16.1 60 15.6 97 97 Calm 29.97 1015 9 14 0.00 0.00
3:53 am 03:53 Clear 62 16.7 61 16.1 96 96 Calm 29.96 1015 7 11 0.00 0.00
4:53 am 04:53 Clear with Mist and Fog 61 16.1 61 16.1 100 100 Calm 29.96 1015 6 10 0.00 0.00
5:48 am 05:48 Clear with Mist and Fog 63 17 61 16 94 94 Calm 29.97 1015 3 4 0.00 0.00
5:53 am 05:53 Clear 62 16.7 61 16.1 96 96 Calm 29.97 1015 8 13 0.00 0.00
6:53 am 06:53 Sunny 61 16.1 61 16.1 100 100 Calm 29.99 1016 8 13 0.00 0.00
7:53 am 07:53 Sunny 63 17.2 62 16.7 97 97 ENE 3 6 30.01 1016 8 13 0.00 0.00
8:53 am 08:53 Sunny 68 20 63 17.2 84 84 E 3 6 30.01 1016 10 16 0.00 0.00
9:53 am 09:53 Mostly Sunny 73 22.8 64 17.8 73 73 ENE 6 9 30.01 1016 10 16 0.00 0.00
10:53 am 10:53 Partly Cloudy 76 24.4 62 16.7 62 62 NNE 10 17 30.02 1017 10 16 0.00 0.00
11:53 am 11:53 Partly Cloudy 76 24.4 61 16.1 60 60 NNE 10 17 30.01 1016 10 16 0.00 0.00
12:53 pm 12:53 Mostly Sunny 79 26.1 60 15.6 52 52 NNE 10 17 30.01 1016 10 16 0.00 0.00
1:53 pm 13:53 Partly Cloudy 80 26.7 59 15 49 49 NE 8 13 30.00 1016 10 16 0.00 0.00
2:53 pm 14:53 Partly Cloudy 80 26.7 60 15.6 51 51 NE 10 17 29.98 1015 10 16 0.00 0.00
3:53 pm 15:53 Cloudy 80 26.7 59 15 49 49 NE 7 11 29.97 1015 10 16 0.00 0.00
4:53 pm 16:53 Mostly Cloudy 81 27.2 61 16.1 51 51 NE 12 19 29.97 1015 10 16 0.00 0.00
5:53 pm 17:53 Mostly Cloudy 78 25.6 61 16.1 56 56 ENE 8 13 29.96 1015 10 16 0.00 0.00
6:53 pm 18:53 Mostly Cloudy 77 25 62 16.7 60 60 NE 6 9 29.96 1015 10 16 0.00 0.00
7:53 pm 19:53 Mostly Cloudy 74 23.3 63 17.2 69 69 NE 7 11 29.98 1015 10 16 0.00 0.00
8:53 pm 20:53 Partly Cloudy 71 21.7 62 16.7 73 73 Calm 29.97 1015 10 16 0.00 0.00
9:53 pm 21:53 Mostly Clear 66 18.9 64 17.8 93 93 Calm 29.99 1016 10 16 0.00 0.00
10:53 pm 22:53 Mostly Clear 65 18.3 64 17.8 97 97 Calm 30.01 1016 10 16 0.00 0.00
11:53 pm 23:53 Clear 64 17.8 63 17.2 96 96 Calm 30.02 1017 9 14 0.00 0.00

Powered by AerisWeather